Location: ?ern� Novina
(50.6762°N, 14.8696°E)
Time: 12:48:24
(UTC+00:00)

ATLAS CENTAUR R/B - Pass Details

Date: 03 March 2021
Orbit: 475 x 670 km, 64.7° (Epoch: 30 March)

Event Time Altitude Azimuth Distance (km) Brightness Sun altitude
Rises 18:19:54 0° 209° (SSW) 2,519 5.0 -15.7°
Reaches altitude 10° 18:22:02 10° 206° (SSW) 1,640 3.9 -16.0°
Maximum altitude 18:25:37 58° 126° (SE) 560 1.0 -16.6°
Enters shadow 18:27:02 33° 61° (ENE) 835 1.8 -16.8°
